����,���ϕ���(m/s),���ϕ���,�ő�u�ԕ���(m/s),�ő啗��������,�C��(��),���x(%),10���Ԉړ��ώZ�J��(mm),1���Ԉړ��ώZ�J��(mm),���J��(mm),�݌v�J��(mm),����(���ώZ)(MJ/m2),����(���ώZ)(min),���n�C��(hPa),�C�ʋC��(hPa)
2020-07-06T00:00:00+09:00,1,��,2.3,��쐼,23.5,95.4,0,0,5,45,13.22,214,993.6,1006.9
2020-07-06T00:01:00+09:00,0.9,��,2.3,��쐼,23.5,95.6,0,0,0,45,0,0,993.6,1006.9
2020-07-06T00:02:00+09:00,0.9,��,2.3,��쐼,23.5,95.6,0,0,0,45,0,0,993.5,1006.8
2020-07-06T00:03:00+09:00,1,��,2.3,��쐼,23.5,95.7,0,0,0,45,0,0,993.5,1006.8
2020-07-06T00:04:00+09:00,1.1,��,3.5,��,23.4,95.6,0,0,0,45,0,0,993.5,1006.8
2020-07-06T00:05:00+09:00,1.2,��,3.5,��,23.5,95.6,0,0,0,45,0,0,993.5,1006.8
2020-07-06T00:06:00+09:00,1.1,��,3.5,��,23.4,95.7,0,0,0,45,0,0,993.5,1006.8
2020-07-06T00:07:00+09:00,1.2,��,3.5,��,23.4,95.6,0,0,0,45,0,0,993.5,1006.8
2020-07-06T00:08:00+09:00,1.2,��,3.5,��,23.4,95.7,0,0,0,45,0,0,993.5,1006.8
2020-07-06T00:09:00+09:00,1.2,��쐼,3.5,��,23.4,95.7,0,0,0,45,0,0,993.5,1006.8
2020-07-06T00:10:00+09:00,1.1,��쐼,3.5,��,23.4,95.8,0,0,0,45,0,0,993.5,1006.8
2020-07-06T00:11:00+09:00,1.1,��,3.5,��,23.4,95.8,0,0,0,45,0,0,993.5,1006.8
2020-07-06T00:12:00+09:00,1.1,��,3.5,��,23.4,95.8,0,0,0,45,0,0,993.4,1006.7
2020-07-06T00:13:00+09:00,1.1,��,3.5,��,23.4,95.8,0,0,0,45,0,0,993.4,1006.7
2020-07-06T00:14:00+09:00,0.9,��쐼,2.6,��,23.4,95.9,0,0,0,45,0,0,993.3,1006.6
2020-07-06T00:15:00+09:00,0.9,��쐼,2.4,��쐼,23.4,95.9,0,0,0,45,0,0,993.3,1006.6
2020-07-06T00:16:00+09:00,1,��쐼,2.4,��쐼,23.4,95.9,0,0,0,45,0,0,993.3,1006.6
2020-07-06T00:17:00+09:00,0.9,��쐼,2.3,��쐼,23.4,95.9,0,0,0,45,0,0,993.3,1006.6
2020-07-06T00:18:00+09:00,0.9,��쐼,2.3,��쐼,23.4,96,0,0,0,45,0,0,993.3,1006.6
2020-07-06T00:19:00+09:00,0.9,��쐼,2.3,��쐼,23.4,96.1,0,0,0,45,0,0,993.3,1006.6
2020-07-06T00:20:00+09:00,0.9,��쐼,2.3,��쐼,23.4,96.1,0,0,0,45,0,0,993.3,1006.6
2020-07-06T00:21:00+09:00,1,��쐼,2.3,��쐼,23.4,96.3,0,0,0,45,0,0,993.3,1006.6
2020-07-06T00:22:00+09:00,1,��쐼,2.3,��쐼,23.3,96.2,0,0,0,45,0,0,993.3,1006.6
2020-07-06T00:23:00+09:00,1.2,��쐼,2.5,��,23.3,96.3,0,0,0,45,0,0,993.3,1006.6
2020-07-06T00:24:00+09:00,1.2,��쐼,2.5,��,23.3,96.4,0,0,0,45,0,0,993.2,1006.5
2020-07-06T00:25:00+09:00,1.2,��쐼,2.5,��,23.3,96.4,0,0,0,45,0,0,993.2,1006.5
2020-07-06T00:26:00+09:00,1.2,��쐼,2.5,��,23.3,96.4,0,0,0,45,0,0,993.1,1006.4
2020-07-06T00:27:00+09:00,1.2,��,2.5,��,23.2,96.5,0,0,0,45,0,0,993.1,1006.4
2020-07-06T00:28:00+09:00,1.3,��,2.5,��,23.2,96.5,0,0,0,45,0,0,993,1006.3
2020-07-06T00:29:00+09:00,1.4,��,2.5,��,23.2,96.7,0,0,0,45,0,0,993,1006.3
2020-07-06T00:30:00+09:00,1.4,��,2.7,��,23.2,96.7,0,0,0,45,0,0,993,1006.3
2020-07-06T00:31:00+09:00,1.5,��,2.7,��,23.3,96.8,0,0,0,45,0,0,993,1006.3
2020-07-06T00:32:00+09:00,1.5,��,2.7,��,23.3,97,0,0,0,45,0,0,993,1006.3
2020-07-06T00:33:00+09:00,1.5,��,2.7,��,23.3,97,0,0,0,45,0,0,993,1006.3
2020-07-06T00:34:00+09:00,1.6,��,3,��쐼,23.3,97,0,0,0,45,0,0,993,1006.3
2020-07-06T00:35:00+09:00,1.7,��,3,��쐼,23.3,97.1,0,0,0,45,0,0,993,1006.3
2020-07-06T00:36:00+09:00,1.8,��,3.6,��,23.3,97,0,0,0,45,0,0,993,1006.3
2020-07-06T00:37:00+09:00,2,��,3.6,��,23.2,97,0,0,0,45,0,0,992.9,1006.2
2020-07-06T00:38:00+09:00,2.1,��,3.8,��,23.2,96.9,0,0,0,45,0,0,992.9,1006.2
2020-07-06T00:39:00+09:00,2.2,��,4.2,��,23.2,96.9,0,0,0,45,0,0,992.9,1006.2
2020-07-06T00:40:00+09:00,2.3,��쐼,4.2,��,23.2,96.9,0,0,0,45,0,0,992.9,1006.2
2020-07-06T00:41:00+09:00,2.5,��,4.5,��,23.2,96.9,0,0,0,45,0,0,992.9,1006.2
2020-07-06T00:42:00+09:00,2.7,��,4.5,��,23.2,96.9,0,0,0,45,0,0,992.9,1006.2
2020-07-06T00:43:00+09:00,2.8,��,4.5,��,23.2,96.9,0,0,0,45,0,0,993,1006.3
2020-07-06T00:44:00+09:00,2.9,��,4.5,��,23.2,96.9,0,0,0,45,0,0,993,1006.3
2020-07-06T00:45:00+09:00,2.9,��,4.5,��,23.2,96.9,0,0,0,45,0,0,993,1006.3
2020-07-06T00:46:00+09:00,3,��,4.5,��,23.2,96.9,0,0,0,45,0,0,993.1,1006.4
2020-07-06T00:47:00+09:00,3.1,��쐼,4.5,��,23.2,96.9,0,0,0,45,0,0,993.1,1006.4
2020-07-06T00:48:00+09:00,3.2,��쐼,4.5,��,23.2,96.9,0,0,0,45,0,0,993.1,1006.4
2020-07-06T00:49:00+09:00,3.2,��쐼,4.5,��,23.2,97,0,0,0,45,0,0,993.1,1006.4
2020-07-06T00:50:00+09:00,3.2,��쐼,4.5,��,23.1,97,0,0,0,45,0,0,993.1,1006.4
2020-07-06T00:51:00+09:00,3.1,��쐼,4.5,��,23.2,97,0,0,0,45,0,0,993.1,1006.4
2020-07-06T00:52:00+09:00,3.1,��쐼,4.5,��,23.2,97.1,0,0,0,45,0,0,993.1,1006.4
2020-07-06T00:53:00+09:00,3.1,��쐼,4.5,��,23.2,97,0,0,0,45,0,0,993.1,1006.4
2020-07-06T00:54:00+09:00,3.2,��쐼,4.5,��,23.2,97.1,0,0,0,45,0,0,993,1006.3
2020-07-06T00:55:00+09:00,3.2,��쐼,4.5,��,23.2,97,0,0,0,45,0,0,993,1006.3
2020-07-06T00:56:00+09:00,3.1,��쐼,4.5,��,23.2,97,0,0,0,45,0,0,993,1006.3
2020-07-06T00:57:00+09:00,3,��쐼,4.5,��,23.2,97,0,0,0,45,0,0,993,1006.3
2020-07-06T00:58:00+09:00,2.9,��쐼,4.5,��,23.2,96.9,0,0,0,45,0,0,993,1006.3
2020-07-06T00:59:00+09:00,2.9,��쐼,4.2,��쐼,23.2,96.9,0,0,0,45,0,0,993,1006.3
2020-07-06T01:00:00+09:00,2.9,��쐼,4.2,��쐼,23.2,96.9,0,0,0,45,0,0,992.9,1006.2
2020-07-06T01:01:00+09:00,2.8,��쐼,4.2,��쐼,23.2,97,0,0,0,45,0,0,992.9,1006.2
2020-07-06T01:02:00+09:00,2.7,��쐼,4.2,��쐼,23.2,96.9,0,0,0,45,0,0,992.9,1006.2
2020-07-06T01:03:00+09:00,2.6,��쐼,4.2,��쐼,23.2,96.9,0,0,0,45,0,0,993,1006.3
2020-07-06T01:04:00+09:00,2.5,��쐼,3.9,��쐼,23.2,97,0,0,0,45,0,0,993,1006.3
2020-07-06T01:05:00+09:00,2.6,��쐼,4,��쐼,23.2,96.9,0,0,0,45,0,0,993,1006.3
2020-07-06T01:06:00+09:00,2.5,��쐼,4,��쐼,23.2,97,0,0,0,45,0,0,993,1006.3
2020-07-06T01:07:00+09:00,2.5,��쐼,4,��쐼,23.2,97,0,0,0,45,0,0,992.9,1006.2
2020-07-06T01:08:00+09:00,2.5,��쐼,4,��쐼,23.2,97,0,0,0,45,0,0,992.9,1006.2
2020-07-06T01:09:00+09:00,2.4,��쐼,4,��쐼,23.2,97,0,0,0,45,0,0,992.9,1006.2
2020-07-06T01:10:00+09:00,2.4,��쐼,4,��쐼,23.2,96.9,0,0,0,45,0,0,992.9,1006.2
2020-07-06T01:11:00+09:00,2.4,��쐼,4,��쐼,23.2,97,0,0,0,45,0,0,992.8,1006.1
2020-07-06T01:12:00+09:00,2.4,��쐼,4,��쐼,23.2,96.9,0,0,0,45,0,0,992.8,1006.1
2020-07-06T01:13:00+09:00,2.3,��쐼,4,��쐼,23.1,96.9,0,0,0,45,0,0,992.8,1006.1
2020-07-06T01:14:00+09:00,2.3,��쐼,4,��쐼,23.1,96.9,0,0,0,45,0,0,992.8,1006.1
2020-07-06T01:15:00+09:00,2.3,��쐼,4,��,23.2,97,0,0,0,45,0,0,992.9,1006.2
2020-07-06T01:16:00+09:00,2.3,��쐼,4,��,23.2,97,0,0,0,45,0,0,992.9,1006.2
2020-07-06T01:17:00+09:00,2.4,��쐼,4,��,23.1,97.1,0,0,0,45,0,0,992.9,1006.2
2020-07-06T01:18:00+09:00,2.4,��쐼,4,��,23.1,97,0,0,0,45,0,0,993,1006.3
2020-07-06T01:19:00+09:00,2.4,��쐼,4,��,23.1,97,0,0,0,45,0,0,993,1006.3
2020-07-06T01:20:00+09:00,2.4,��쐼,4,��,23.1,97.1,0,0,0,45,0,0,993,1006.3
2020-07-06T01:21:00+09:00,2.4,��쐼,4,��,23.1,97.2,0.5,0.5,0.5,45.5,0,0,992.9,1006.2
2020-07-06T01:22:00+09:00,2.4,��쐼,4,��,23.1,97.3,0.5,0.5,0.5,45.5,0,0,992.9,1006.2
2020-07-06T01:23:00+09:00,2.4,��쐼,4,��,23,97.3,0.5,0.5,0.5,45.5,0,0,992.8,1006.1
2020-07-06T01:24:00+09:00,2.2,��쐼,4,��,23,97.3,0.5,0.5,0.5,45.5,0,0,992.8,1006.1
2020-07-06T01:25:00+09:00,2,��쐼,3.7,��쐼,23,97.3,0.5,0.5,0.5,45.5,0,0,992.8,1006.1
2020-07-06T01:26:00+09:00,1.9,��,3.6,��쐼,23,97.4,0.5,0.5,0.5,45.5,0,0,992.7,1006
2020-07-06T01:27:00+09:00,1.8,��,3.6,��쐼,23,97.5,0.5,0.5,0.5,45.5,0,0,992.7,1006
2020-07-06T01:28:00+09:00,1.6,��,3.4,��쐼,23,97.5,0.5,0.5,0.5,45.5,0,0,992.7,1006
2020-07-06T01:29:00+09:00,1.6,��,3.4,��쐼,23,97.6,0.5,0.5,0.5,45.5,0,0,992.7,1006
2020-07-06T01:30:00+09:00,1.5,��,3.2,��쓌,23,97.6,0.5,0.5,0.5,45.5,0,0,992.7,1006
2020-07-06T01:31:00+09:00,1.5,��,3.3,��,23,97.6,0.5,1,1,46,0,0,992.7,1006
2020-07-06T01:32:00+09:00,1.4,��,3.3,��,23,97.7,0.5,1,1,46,0,0,992.7,1006
2020-07-06T01:33:00+09:00,1.5,��,3.4,��,23,97.7,0.5,1,1,46,0,0,992.7,1006
2020-07-06T01:34:00+09:00,1.6,��,3.4,��,23,97.7,0.5,1,1,46,0,0,992.7,1006
2020-07-06T01:35:00+09:00,1.7,��,3.4,��,23,97.7,0.5,1,1,46,0,0,992.8,1006.1
2020-07-06T01:36:00+09:00,1.9,��,3.8,��,23,97.7,0.5,1,1,46,0,0,992.8,1006.1
2020-07-06T01:37:00+09:00,1.9,��,4,��,23,97.7,0.5,1,1,46,0,0,992.9,1006.2
2020-07-06T01:38:00+09:00,2.1,��,4,��,23,97.7,1,1.5,1.5,46.5,0,0,992.9,1006.2
2020-07-06T01:39:00+09:00,2.1,��,4,��,23,97.7,1,1.5,1.5,46.5,0,0,992.9,1006.2
2020-07-06T01:40:00+09:00,2.1,��,4,��,23,97.7,1,1.5,1.5,46.5,0,0,992.9,1006.2
2020-07-06T01:41:00+09:00,2.2,��,4,��,23,97.7,0.5,1.5,1.5,46.5,0,0,993,1006.4
2020-07-06T01:42:00+09:00,2.2,��,4,��,22.9,97.7,0.5,1.5,1.5,46.5,0,0,992.9,1006.3
2020-07-06T01:43:00+09:00,2,��,4,��,22.9,97.7,0.5,1.5,1.5,46.5,0,0,992.9,1006.3
2020-07-06T01:44:00+09:00,1.8,��,4,��,22.9,97.8,1,2,2,47,0,0,992.9,1006.3
2020-07-06T01:45:00+09:00,1.8,��,4,��,22.9,97.8,1,2,2,47,0,0,992.9,1006.3
2020-07-06T01:46:00+09:00,1.7,��,4,��,22.9,97.8,1,2,2,47,0,0,992.9,1006.3
2020-07-06T01:47:00+09:00,1.5,��,3.5,��,22.9,97.8,1,2,2,47,0,0,992.8,1006.2
2020-07-06T01:48:00+09:00,1.3,��,3.5,��,22.9,97.8,0.5,2,2,47,0,0,992.8,1006.2
2020-07-06T01:49:00+09:00,1.2,��,3.5,��,22.9,97.8,0.5,2,2,47,0,0,992.8,1006.2
2020-07-06T01:50:00+09:00,1,��쓌,3.5,��,22.9,97.8,0.5,2,2,47,0,0,992.8,1006.2
2020-07-06T01:51:00+09:00,0.8,��쓌,2.6,��쓌,22.9,97.8,0.5,2,2,47,0,0,992.7,1006.1
2020-07-06T01:52:00+09:00,0.8,��쓌,2.6,��쓌,23,97.8,0.5,2,2,47,0,0,992.7,1006
2020-07-06T01:53:00+09:00,0.8,��쓌,2.6,��쓌,22.9,97.8,0.5,2,2,47,0,0,992.7,1006.1
2020-07-06T01:54:00+09:00,0.9,��쓌,2.6,��쓌,22.9,97.8,0,2,2,47,0,0,992.6,1005.9
2020-07-06T01:55:00+09:00,0.8,��쓌,2.6,��쓌,23,97.8,0,2,2,47,0,0,992.7,1006
2020-07-06T01:56:00+09:00,0.8,��쓌,2.3,��,23,97.9,0,2,2,47,0,0,992.7,1006
2020-07-06T01:57:00+09:00,0.9,��,3.2,��,23,97.8,0,2,2,47,0,0,992.7,1006
2020-07-06T01:58:00+09:00,1,��,3.2,��,23,97.8,0,2,2,47,0,0,992.7,1006
2020-07-06T01:59:00+09:00,1,��,3.2,��,23,97.8,0,2,2,47,0,0,992.7,1006
2020-07-06T02:00:00+09:00,1,��,3.2,��,23,97.8,0,2,2,47,0,0,992.7,1006
2020-07-06T02:01:00+09:00,1.1,��,3.2,��,23,97.8,0,2,2,47,0,0,992.7,1006
2020-07-06T02:02:00+09:00,1.2,��,3.2,��,23,97.8,0,2,2,47,0,0,992.7,1006
2020-07-06T02:03:00+09:00,1.2,��,3.2,��,23,97.7,0,2,2,47,0,0,992.7,1006
2020-07-06T02:04:00+09:00,1.2,��,3.2,��,23,97.7,0,2,2,47,0,0,992.7,1006
2020-07-06T02:05:00+09:00,1.2,��,3.2,��,23,97.7,0,2,2,47,0,0,992.7,1006
2020-07-06T02:06:00+09:00,1.2,��,3.2,��,23,97.7,0,2,2,47,0,0,992.6,1005.9
2020-07-06T02:07:00+09:00,1.3,��,3.2,��,23,97.7,0,2,2,47,0,0,992.6,1005.9
2020-07-06T02:08:00+09:00,1.3,��,3.2,��,23,97.6,0,2,2,47,0,0,992.6,1005.9
2020-07-06T02:09:00+09:00,1.4,��,3.2,��,23,97.7,0,2,2,47,0,0,992.6,1005.9
2020-07-06T02:10:00+09:00,1.5,��,3.2,��,23,97.7,0,2,2,47,0,0,992.6,1005.9
2020-07-06T02:11:00+09:00,1.5,��,3.2,��,23,97.7,0,2,2,47,0,0,992.6,1005.9
2020-07-06T02:12:00+09:00,1.5,��,3.2,��,23,97.7,0,2,2,47,0,0,992.5,1005.8
2020-07-06T02:13:00+09:00,1.4,��,3.2,��,23,97.7,0,2,2,47,0,0,992.5,1005.8
2020-07-06T02:14:00+09:00,1.5,��,3.2,��,23,97.7,0,2,2,47,0,0,992.5,1005.8
2020-07-06T02:15:00+09:00,1.4,��,3.2,��,23,97.7,0,2,2,47,0,0,992.5,1005.8
2020-07-06T02:16:00+09:00,1.2,��,3.2,��,23.1,97.7,0,2,2,47,0,0,992.5,1005.8
2020-07-06T02:17:00+09:00,1,��,2.8,��,23.1,97.8,0,2,2,47,0,0,992.5,1005.8
2020-07-06T02:18:00+09:00,1,��,2.8,��,23.1,97.7,0,2,2,47,0,0,992.5,1005.8
2020-07-06T02:19:00+09:00,1.1,��,2.8,��,23,97.7,0,2,2,47,0,0,992.5,1005.8
2020-07-06T02:20:00+09:00,0.9,��,2.7,��,23.1,97.7,0,2,2,47,0,0,992.5,1005.8
2020-07-06T02:21:00+09:00,0.8,��,2.7,��,23.1,97.7,0,1.5,2,47,0,0,992.5,1005.8
2020-07-06T02:22:00+09:00,0.8,��,2.7,��,23,97.7,0,1.5,2,47,0,0,992.5,1005.8
2020-07-06T02:23:00+09:00,0.8,��,2.7,��,23,97.7,0,1.5,2,47,0,0,992.6,1005.9
2020-07-06T02:24:00+09:00,0.8,��,2.7,��,23,97.6,0,1.5,2,47,0,0,992.5,1005.8
2020-07-06T02:25:00+09:00,0.9,��,2.7,��,23,97.6,0,1.5,2,47,0,0,992.6,1005.9
2020-07-06T02:26:00+09:00,0.9,��,2.7,��,23,97.7,0,1.5,2,47,0,0,992.5,1005.8
2020-07-06T02:27:00+09:00,1,��,2.7,��,23,97.7,0,1.5,2,47,0,0,992.5,1005.8
2020-07-06T02:28:00+09:00,0.9,��,2.5,��,23,97.7,0,1.5,2,47,0,0,992.5,1005.8
2020-07-06T02:29:00+09:00,0.8,��,2.1,��쓌,23.1,97.7,0,1.5,2,47,0,0,992.5,1005.8
2020-07-06T02:30:00+09:00,0.8,��,2.1,��쓌,23,97.7,0,1.5,2,47,0,0,992.5,1005.8
2020-07-06T02:31:00+09:00,0.8,��쓌,2.1,��쓌,23.1,97.7,0,1,2,47,0,0,992.6,1005.9
2020-07-06T02:32:00+09:00,0.7,��쓌,2.1,��쓌,23.1,97.7,0,1,2,47,0,0,992.6,1005.9
2020-07-06T02:33:00+09:00,0.7,��쓌,2.1,��쓌,23.1,97.7,0,1,2,47,0,0,992.6,1005.9
2020-07-06T02:34:00+09:00,0.6,��쓌,2,�쓌,23.1,97.7,0,1,2,47,0,0,992.6,1005.9
2020-07-06T02:35:00+09:00,0.6,��쓌,2,�쓌,23.1,97.7,0,1,2,47,0,0,992.6,1005.9
2020-07-06T02:36:00+09:00,0.8,��쓌,3.8,��쐼,23.1,97.7,0,1,2,47,0,0,992.6,1005.9
2020-07-06T02:37:00+09:00,1.1,��쓌,4.5,��쐼,23.2,97.7,0,1,2,47,0,0,992.5,1005.8
2020-07-06T02:38:00+09:00,1.3,��쓌,4.5,��쐼,23.2,97.7,0,0.5,2,47,0,0,992.5,1005.8
2020-07-06T02:39:00+09:00,1.4,��쓌,4.6,��,23.2,97.7,0,0.5,2,47,0,0,992.5,1005.8
2020-07-06T02:40:00+09:00,1.4,��쓌,4.6,��,23.3,97.5,0,0.5,2,47,0,0,992.5,1005.8
2020-07-06T02:41:00+09:00,1.6,��,4.9,��쐼,23.3,97.4,0.5,1,2.5,47.5,0,0,992.5,1005.8
2020-07-06T02:42:00+09:00,1.9,��,4.9,��쐼,23.3,97.3,0.5,1,2.5,47.5,0,0,992.6,1005.9
2020-07-06T02:43:00+09:00,2.1,��,4.9,��쐼,23.3,97.2,0.5,1,2.5,47.5,0,0,992.6,1005.9
2020-07-06T02:44:00+09:00,2.4,��,4.9,��쐼,23.3,97,0.5,0.5,2.5,47.5,0,0,992.6,1005.9
2020-07-06T02:45:00+09:00,2.5,��,4.9,��쐼,23.3,96.9,0.5,0.5,2.5,47.5,0,0,992.6,1005.9
2020-07-06T02:46:00+09:00,2.4,��,4.9,��쐼,23.3,96.8,0.5,0.5,2.5,47.5,0,0,992.6,1005.9
2020-07-06T02:47:00+09:00,2.2,��,4.9,��쐼,23.3,96.7,0.5,0.5,2.5,47.5,0,0,992.6,1005.9
2020-07-06T02:48:00+09:00,2,��,4.9,��쐼,23.3,96.6,0.5,0.5,2.5,47.5,0,0,992.6,1005.9
2020-07-06T02:49:00+09:00,2,��,4.9,��쐼,23.3,96.6,0.5,0.5,2.5,47.5,0,0,992.6,1005.9
2020-07-06T02:50:00+09:00,1.9,��,4.9,��쐼,23.3,96.6,0.5,0.5,2.5,47.5,0,0,992.6,1005.9
2020-07-06T02:51:00+09:00,1.8,��,4.5,��,23.3,96.6,0,0.5,2.5,47.5,0,0,992.6,1005.9
2020-07-06T02:52:00+09:00,1.7,��,4.5,��,23.3,96.6,0,0.5,2.5,47.5,0,0,992.5,1005.8
2020-07-06T02:53:00+09:00,1.6,��,4.5,��,23.3,96.6,0,0.5,2.5,47.5,0,0,992.5,1005.8
2020-07-06T02:54:00+09:00,1.4,��,4,��,23.3,96.6,0,0.5,2.5,47.5,0,0,992.5,1005.8
2020-07-06T02:55:00+09:00,1.3,��쓌,4,��,23.3,96.6,0,0.5,2.5,47.5,0,0,992.5,1005.8
2020-07-06T02:56:00+09:00,1.2,��쓌,3.3,��,23.3,96.6,0,0.5,2.5,47.5,0,0,992.5,1005.8
2020-07-06T02:57:00+09:00,1.2,��쓌,3.3,��,23.3,96.7,0,0.5,2.5,47.5,0,0,992.5,1005.8
2020-07-06T02:58:00+09:00,1.1,��쓌,3.3,��,23.2,96.7,0,0.5,2.5,47.5,0,0,992.4,1005.7
2020-07-06T02:59:00+09:00,1,��쓌,3.3,��,23.2,96.8,0,0.5,2.5,47.5,0,0,992.4,1005.7
2020-07-06T03:00:00+09:00,1,��쓌,3.3,��,23.1,96.8,0.5,1,3,48,0,0,992.5,1005.8
2020-07-06T03:01:00+09:00,0.9,��쓌,3.3,��,23.1,96.9,0.5,1,3,48,0,0,992.4,1005.7
2020-07-06T03:02:00+09:00,0.7,��쓌,2.4,�쓌,23.1,97,0.5,1,3,48,0,0,992.4,1005.7
2020-07-06T03:03:00+09:00,0.6,��쓌,2.4,�쓌,23.1,97.1,0.5,1,3,48,0,0,992.4,1005.7
2020-07-06T03:04:00+09:00,0.6,�쓌,2.4,�쓌,23.1,97.2,0.5,1,3,48,0,0,992.4,1005.7
2020-07-06T03:05:00+09:00,0.4,�쓌,2.2,��쓌,23.1,97.2,0.5,1,3,48,0,0,992.4,1005.7
2020-07-06T03:06:00+09:00,0.4,�쓌,1.5,��쓌,23.1,97.3,0.5,1,3,48,0,0,992.4,1005.7
2020-07-06T03:07:00+09:00,0.4,�쓌,1.2,��,23.1,97.4,0.5,1,3,48,0,0,992.3,1005.6
2020-07-06T03:08:00+09:00,0.4,�쓌,1.2,��,23.1,97.4,0.5,1,3,48,0,0,992.4,1005.7
2020-07-06T03:09:00+09:00,0.5,�쓌,1.2,��,23.1,97.5,0.5,1,3,48,0,0,992.3,1005.6
2020-07-06T03:10:00+09:00,0.4,�쓌,1.2,��,23.1,97.5,0,1,3,48,0,0,992.3,1005.6
2020-07-06T03:11:00+09:00,0.4,�쓌,1.2,��,23.1,97.5,0.5,1.5,3.5,48.5,0,0,992.3,1005.6
2020-07-06T03:12:00+09:00,0.4,�쓌,1.2,��,23.1,97.5,0.5,1.5,3.5,48.5,0,0,992.2,1005.5
2020-07-06T03:13:00+09:00,0.4,�쓌,1.2,��,23.1,97.5,0.5,1.5,3.5,48.5,0,0,992.2,1005.5
2020-07-06T03:14:00+09:00,0.4,�쓌,1,���쓌,23.1,97.5,0.5,1.5,3.5,48.5,0,0,992.2,1005.5
2020-07-06T03:15:00+09:00,0.4,�쓌,1.4,���쓌,23.1,97.5,0.5,1.5,3.5,48.5,0,0,992.2,1005.5
2020-07-06T03:16:00+09:00,0.4,�쓌,1.4,���쓌,23.1,97.5,0.5,1.5,3.5,48.5,0,0,992.2,1005.5
2020-07-06T03:17:00+09:00,0.4,�쓌,1.4,���쓌,23.1,97.6,0.5,1.5,3.5,48.5,0,0,992.2,1005.5
2020-07-06T03:18:00+09:00,0.4,�쓌,1.4,���쓌,23.1,97.6,0.5,1.5,3.5,48.5,0,0,992.1,1005.4
2020-07-06T03:19:00+09:00,0.4,�쓌,1.4,���쓌,23.1,97.7,0.5,1.5,3.5,48.5,0,0,992.1,1005.4
2020-07-06T03:20:00+09:00,0.4,�쓌,1.4,���쓌,23.1,97.7,0.5,1.5,3.5,48.5,0,0,992.1,1005.4
2020-07-06T03:21:00+09:00,0.4,�쓌,1.4,���쓌,23.1,97.7,0,1.5,3.5,48.5,0,0,992.1,1005.4
2020-07-06T03:22:00+09:00,0.4,�쓌,1.4,���쓌,23.1,97.7,0.5,2,4,49,0,0,992.1,1005.4
2020-07-06T03:23:00+09:00,0.4,��쓌,1.4,���쓌,23,97.7,0.5,2,4,49,0,0,992,1005.3
2020-07-06T03:24:00+09:00,0.4,��쓌,1.4,���쓌,23.1,97.7,0.5,2,4,49,0,0,992,1005.3
2020-07-06T03:25:00+09:00,0.4,��쓌,1.3,��,23.1,97.7,0.5,2,4,49,0,0,992,1005.3
2020-07-06T03:26:00+09:00,0.4,��,1.3,��,23.1,97.7,0.5,2,4,49,0,0,992,1005.3
2020-07-06T03:27:00+09:00,0.4,��,1.3,��,23.1,97.8,0.5,2,4,49,0,0,992,1005.3
2020-07-06T03:28:00+09:00,0.3,��,1.3,��,23.1,97.8,0.5,2,4,49,0,0,992,1005.3
2020-07-06T03:29:00+09:00,0.3,��,0.9,��쐼,23,97.8,0.5,2,4,49,0,0,992,1005.3
2020-07-06T03:30:00+09:00,0.3,��,1.1,��쐼,23,97.8,0.5,2,4,49,0,0,992,1005.3
2020-07-06T03:31:00+09:00,0.4,��,1.1,��쐼,23,97.8,0.5,2,4,49,0,0,992,1005.3
2020-07-06T03:32:00+09:00,0.4,��쐼,1.1,��쐼,23,97.8,0,2,4,49,0,0,992,1005.3
2020-07-06T03:33:00+09:00,0.4,��쐼,1.1,��쐼,23,97.8,0,2,4,49,0,0,992,1005.3
2020-07-06T03:34:00+09:00,0.5,��,1.6,��쐼,23,97.8,0,2,4,49,0,0,992.1,1005.4
2020-07-06T03:35:00+09:00,0.6,��쐼,1.8,��쐼,23,97.9,0,2,4,49,0,0,992.1,1005.4
2020-07-06T03:36:00+09:00,0.8,��쐼,2,��,23,97.8,0,2,4,49,0,0,992.1,1005.4
2020-07-06T03:37:00+09:00,0.9,��,2,��,23,97.9,0,2,4,49,0,0,992,1005.3
2020-07-06T03:38:00+09:00,0.9,��쐼,2,��,23,97.9,0,2,4,49,0,0,992,1005.3
2020-07-06T03:39:00+09:00,0.9,��쐼,2,��,23,97.9,0.5,2.5,4.5,49.5,0,0,992,1005.3
2020-07-06T03:40:00+09:00,0.9,��쐼,2,��,23,97.9,0.5,2.5,4.5,49.5,0,0,992,1005.3
2020-07-06T03:41:00+09:00,0.9,��쐼,2,��,23,97.9,0.5,2,4.5,49.5,0,0,992,1005.3
2020-07-06T03:42:00+09:00,0.9,��쐼,2,��,23,97.9,0.5,2,4.5,49.5,0,0,992,1005.3
2020-07-06T03:43:00+09:00,0.9,��,2,��,23,97.9,0.5,2,4.5,49.5,0,0,992,1005.3
2020-07-06T03:44:00+09:00,0.9,��,2.2,��쐼,23,97.9,0.5,2,4.5,49.5,0,0,992,1005.3
2020-07-06T03:45:00+09:00,0.8,��,2.2,��쐼,23,97.9,1,2.5,5,50,0,0,992,1005.3
2020-07-06T03:46:00+09:00,0.8,��,2.2,��쐼,23,97.9,1,2.5,5,50,0,0,992,1005.3
2020-07-06T03:47:00+09:00,0.8,��,2.2,��쐼,23,97.9,1,2.5,5,50,0,0,992,1005.3
2020-07-06T03:48:00+09:00,0.9,��,2.2,��쐼,23,97.9,1,2.5,5,50,0,0,991.9,1005.2
2020-07-06T03:49:00+09:00,0.8,��,2.2,��쐼,23,97.9,0.5,2.5,5,50,0,0,991.9,1005.2
2020-07-06T03:50:00+09:00,0.9,��,2.2,��쐼,23,97.9,0.5,2.5,5,50,0,0,991.9,1005.2
2020-07-06T03:51:00+09:00,0.8,��,2.2,��쐼,23,97.9,0.5,2.5,5,50,0,0,991.9,1005.2
2020-07-06T03:52:00+09:00,0.8,��,2.2,��쐼,23,97.9,1,3,5.5,50.5,0,0,991.9,1005.2
2020-07-06T03:53:00+09:00,0.8,��,2.2,��쐼,23,97.9,1,3,5.5,50.5,0,0,991.9,1005.2
2020-07-06T03:54:00+09:00,0.8,��,2,��,23,97.9,1,3,5.5,50.5,0,0,991.9,1005.2
2020-07-06T03:55:00+09:00,0.7,��,2,��,23,98,0.5,3,5.5,50.5,0,0,991.9,1005.2
2020-07-06T03:56:00+09:00,0.7,��,2,��,23,98,1,3.5,6,51,0,0,991.8,1005.1
2020-07-06T03:57:00+09:00,0.6,��,2,��,23,97.9,1,3.5,6,51,0,0,991.8,1005.1
2020-07-06T03:58:00+09:00,0.6,��,2,��,22.9,97.9,1,3.5,6,51,0,0,991.8,1005.1
2020-07-06T03:59:00+09:00,0.7,��,2,��,23,98,1,3.5,6,51,0,0,991.8,1005.1
2020-07-06T04:00:00+09:00,0.8,��,2.3,��,23,98,1,3,6,51,0,0,991.8,1005.1
2020-07-06T04:01:00+09:00,0.9,��,2.3,��,23,98,1,3,6,51,0,0,991.8,1005.1
2020-07-06T04:02:00+09:00,0.9,��,2.3,��,23,98,0.5,3,6,51,0,0,991.8,1005.1
2020-07-06T04:03:00+09:00,1,��,2.3,��,23,98,0.5,3,6,51,0,0,991.7,1005
2020-07-06T04:04:00+09:00,1,��,2.3,��,23,98,1,3.5,6.5,51.5,0,0,991.7,1005
2020-07-06T04:05:00+09:00,1.1,��,2.3,��,23,98,1,3.5,6.5,51.5,0,0,991.8,1005.1
2020-07-06T04:06:00+09:00,1.2,��,2.3,��,23,98,0.5,3.5,6.5,51.5,0,0,991.8,1005.1
2020-07-06T04:07:00+09:00,1.2,��,2.3,��,23,98,0.5,3.5,6.5,51.5,0,0,991.8,1005.1
2020-07-06T04:08:00+09:00,1.3,��,2.9,��,23,98,0.5,3.5,6.5,51.5,0,0,991.8,1005.1
2020-07-06T04:09:00+09:00,1.4,��,2.9,��,23,98,0.5,3.5,6.5,51.5,0,0,991.8,1005.1
2020-07-06T04:10:00+09:00,1.4,��,2.9,��,23,98,0.5,3.5,6.5,51.5,0,0,991.8,1005.1
2020-07-06T04:11:00+09:00,1.4,��,2.9,��,23,98,0.5,3,6.5,51.5,0,0,991.8,1005.1
2020-07-06T04:12:00+09:00,1.4,��쐼,2.9,��,23,98,0.5,3,6.5,51.5,0,0,991.7,1005
2020-07-06T04:13:00+09:00,1.4,��쐼,2.9,��,23,98,0.5,3,6.5,51.5,0,0,991.8,1005.1
2020-07-06T04:14:00+09:00,1.5,��쐼,2.9,��,23,98,0,3,6.5,51.5,0,0,991.8,1005.1
2020-07-06T04:15:00+09:00,1.6,��,3.1,��쐼,23,98,0,3,6.5,51.5,0,0,991.8,1005.1
2020-07-06T04:16:00+09:00,1.7,��,3.1,��쐼,23,98,0,3,6.5,51.5,0,0,991.8,1005.1
2020-07-06T04:17:00+09:00,1.7,��,3.1,��쐼,23,98,0,3,6.5,51.5,0,0,991.8,1005.1
2020-07-06T04:18:00+09:00,1.7,��,3.1,��쐼,23,98,0,3,6.5,51.5,0,0,991.8,1005.1
2020-07-06T04:19:00+09:00,1.7,��,3.2,��,23,98,0,3,6.5,51.5,0,0,991.8,1005.1
2020-07-06T04:20:00+09:00,1.9,��,4.2,��,23,98,0.5,3.5,7,52,0,0,991.9,1005.2
2020-07-06T04:21:00+09:00,2,��,4.2,��,23,98,0.5,3.5,7,52,0,0,991.9,1005.2
2020-07-06T04:22:00+09:00,2.1,��,4.2,��,23,98,0.5,3,7,52,0,0,991.9,1005.2
2020-07-06T04:23:00+09:00,2.1,��,4.2,��,23,98,1,3.5,7.5,52.5,0,0,991.9,1005.2
2020-07-06T04:24:00+09:00,2.1,��,4.2,��,23,98,1,3.5,7.5,52.5,0,0,991.9,1005.2
2020-07-06T04:25:00+09:00,2.1,��,4.2,��,23,98,1,3.5,7.5,52.5,0,0,992,1005.3
2020-07-06T04:26:00+09:00,2.1,��,4.2,��,23,98,1,3.5,7.5,52.5,0,0,992.1,1005.4
2020-07-06T04:27:00+09:00,2.2,��,4.2,��,23,98,1,3.5,7.5,52.5,0,0,992.1,1005.4
2020-07-06T04:28:00+09:00,2.2,��,4.2,��,22.9,98,1.5,4,8,53,0,0,992.1,1005.4
2020-07-06T04:29:00+09:00,2.3,��,4.2,��,22.9,98,1.5,4,8,53,0,0,992.1,1005.4
2020-07-06T04:30:00+09:00,2.2,��,3.6,��,22.9,98,1,4,8,53,0,0,992.1,1005.4
2020-07-06T04:31:00+09:00,2.2,��,4.1,��쐼,22.9,98,1,4,8,53,0,0,992.1,1005.4
2020-07-06T04:32:00+09:00,2.2,��,4.7,��,22.9,98.1,1.5,4.5,8.5,53.5,0,0,992.1,1005.4
2020-07-06T04:33:00+09:00,2.6,��,5.6,��,22.8,98,1,4.5,8.5,53.5,0,0,992.1,1005.4
2020-07-06T04:34:00+09:00,2.7,��,6.3,��쐼,22.9,98,1,4.5,8.5,53.5,0,0,992.2,1005.5
2020-07-06T04:35:00+09:00,3,��,6.8,��쐼,22.8,98,1,4.5,8.5,53.5,0,0,992.2,1005.5
2020-07-06T04:36:00+09:00,3.1,��,6.8,��쐼,22.8,98,1,4.5,8.5,53.5,0,0,992.1,1005.4
2020-07-06T04:37:00+09:00,3.1,��,6.8,��쐼,22.8,98,1.5,5,9,54,0,0,992.1,1005.4
2020-07-06T04:38:00+09:00,3.3,��,6.8,��쐼,22.8,98,1,5,9,54,0,0,992.1,1005.4
2020-07-06T04:39:00+09:00,3.4,��,6.8,��쐼,22.8,98,1,4.5,9,54,0,0,992.2,1005.5
2020-07-06T04:40:00+09:00,3.5,��,6.8,��쐼,22.8,98,1,4.5,9,54,0,0,992.2,1005.5
2020-07-06T04:41:00+09:00,3.5,��,6.8,��쐼,22.8,98,1,4.5,9,54,0,0,992.2,1005.5
2020-07-06T04:42:00+09:00,3.7,��,6.8,��쐼,22.8,97.9,0.5,4.5,9,54,0,0,992.2,1005.5
2020-07-06T04:43:00+09:00,3.7,��,6.8,��쐼,22.7,97.9,0.5,4.5,9,54,0,0,992.3,1005.7
2020-07-06T04:44:00+09:00,3.7,��쐼,6.8,��쐼,22.8,97.9,0.5,4.5,9,54,0,0,992.3,1005.6
2020-07-06T04:45:00+09:00,3.6,��,6.2,��쐼,22.8,97.8,0.5,4,9,54,0,0,992.3,1005.6
2020-07-06T04:46:00+09:00,3.6,��,6.2,��쐼,22.8,97.8,0.5,4,9,54,0,0,992.3,1005.6
2020-07-06T04:47:00+09:00,3.8,��,7.7,��쐼,22.7,97.8,0.5,4.5,9.5,54.5,0,0,992.3,1005.7
2020-07-06T04:48:00+09:00,3.9,��쐼,7.7,��쐼,22.8,97.7,0.5,4.5,9.5,54.5,0,0,992.2,1005.5
2020-07-06T04:49:00+09:00,4,��쐼,7.7,��쐼,22.8,97.6,0.5,4.5,9.5,54.5,0,0,992.2,1005.5
2020-07-06T04:50:00+09:00,4.2,��쐼,7.7,��쐼,22.8,97.5,0.5,4.5,9.5,54.5,0,0,992.2,1005.5
2020-07-06T04:51:00+09:00,4.4,��쐼,7.7,��쐼,22.8,97.3,0.5,4.5,9.5,54.5,0,0,992.2,1005.5
2020-07-06T04:52:00+09:00,4.4,��쐼,7.7,��쐼,22.8,97.2,0.5,4,9.5,54.5,0,0,992.2,1005.5
2020-07-06T04:53:00+09:00,4.5,��쐼,7.7,��쐼,22.8,97.1,0.5,4,9.5,54.5,0,0,992.2,1005.5
2020-07-06T04:54:00+09:00,4.4,��쐼,7.7,��쐼,22.8,97,0.5,4,9.5,54.5,0,0,992.2,1005.5
2020-07-06T04:55:00+09:00,4.4,��쐼,7.7,��쐼,22.8,96.9,0.5,4,9.5,54.5,0,0,992.2,1005.5
2020-07-06T04:56:00+09:00,4.5,��쐼,7.7,��쐼,22.8,96.8,1,4,10,55,0,0,992.2,1005.5
2020-07-06T04:57:00+09:00,4.5,��쐼,7.1,��,22.7,96.8,0.5,4,10,55,0,0,992.2,1005.6
2020-07-06T04:58:00+09:00,4.4,��쐼,7,��쐼,22.7,96.7,0.5,4,10,55,0,0,992.2,1005.6
2020-07-06T04:59:00+09:00,4.4,��쐼,7,��쐼,22.7,96.7,0.5,4,10,55,0,0,992.1,1005.5
2020-07-06T05:00:00+09:00,4.3,��쐼,7,��쐼,22.7,96.7,0.5,4,10,55,0,0,992.1,1005.5
2020-07-06T05:01:00+09:00,4.3,��쐼,7,��쐼,22.7,96.7,0.5,4,10,55,0,0,992.1,1005.5
2020-07-06T05:02:00+09:00,4.1,��,7,��쐼,22.7,96.8,0.5,4,10,55,0,0,992.1,1005.5
2020-07-06T05:03:00+09:00,3.9,��,6,��쐼,22.7,96.8,1,4.5,10.5,55.5,0,0,992.1,1005.5
2020-07-06T05:04:00+09:00,3.8,��,6,��쐼,22.7,96.8,1,4,10.5,55.5,0,0,992.1,1005.5
2020-07-06T05:05:00+09:00,3.8,��,6,��쐼,22.7,96.8,1,4,10.5,55.5,0,0,992,1005.4
2020-07-06T05:06:00+09:00,3.7,��,6,��쐼,22.7,96.8,0.5,4,10.5,55.5,0,0,992,1005.4
2020-07-06T05:07:00+09:00,3.5,��,6,��쐼,22.7,96.9,0.5,4,10.5,55.5,0,0,992,1005.4